カタログに戻る

LEGION 4

運用中科学VLEO
NORAD 60453·PAYLOAD·🇺🇸 United States

打ち上げ Aug 15, 2024 から Cape Canaveral Space Force Station

Loading…

次のパス (今後24時間)

TLE

最新Source: Space-Track

元期: Sep 14, 2026, 14:58 UTC

1 60453U 24146B   26257.62374318  .00003388  00000-0  18659-3 0  9995
2 60453  45.0031   2.8921 0008599  98.2281 261.9573 15.16048208114448

AllMySatでLEGION 4をリアルタイム追跡

Download on the App Store